Back to catalog

FENGYUN 1C DEB

AliveSSO
NORAD 40691·DEBRIS·🇨🇳 China

Launched May 10, 1999 from Taiyuan Satellite Launch Center

Loading…

Next Passes (next 24 hours)

TLE

FreshSource: Space-Track

Epoch: Sep 13, 2026, 07:23 UTC

1 40691U 99025EWX 26256.30782875  .00000104  00000-0  11217-3 0  9996
2 40691  99.0284 285.9282 0127678 285.5437  73.1657 13.90063343592507

Track FENGYUN 1C DEB in real time with AllMySat

Download on the App Store